Year,Month,Day,Hour,Minute,Value (Times are PST for temperature in C)
2011,07,14,00,00,13.00
2011,07,14,00,01,13.00
2011,07,14,00,05,13.00
2011,07,14,00,06,13.00
2011,07,14,00,07,13.00
2011,07,14,00,08,13.00
2011,07,14,00,09,13.00
2011,07,14,00,10,13.00
2011,07,14,00,11,13.00
2011,07,14,00,12,13.00
2011,07,14,00,13,13.00
2011,07,14,00,14,13.00
2011,07,14,00,15,13.00
2011,07,14,00,16,13.00
2011,07,14,00,17,13.00
2011,07,14,00,18,13.00
2011,07,14,00,19,13.00
2011,07,14,00,20,13.00
2011,07,14,00,21,13.00
2011,07,14,00,22,13.10
2011,07,14,00,23,13.10
2011,07,14,00,24,13.10
2011,07,14,00,25,13.10
2011,07,14,00,26,13.10
2011,07,14,00,27,13.10
2011,07,14,00,28,13.10
2011,07,14,00,29,13.10
2011,07,14,00,30,13.10
2011,07,14,00,31,13.10
2011,07,14,00,32,13.10
2011,07,14,00,33,13.10
2011,07,14,00,34,13.10
2011,07,14,00,35,13.10
2011,07,14,00,36,13.10
2011,07,14,00,37,13.10
2011,07,14,00,38,13.10
2011,07,14,00,39,13.10
2011,07,14,00,40,13.10
2011,07,14,00,41,13.10
2011,07,14,00,42,13.10
2011,07,14,00,43,13.10
2011,07,14,00,44,13.10
2011,07,14,00,45,13.10
2011,07,14,00,46,13.10
2011,07,14,00,47,13.10
2011,07,14,00,48,13.10
2011,07,14,00,49,13.10
2011,07,14,00,50,13.10
2011,07,14,00,51,13.10
2011,07,14,00,52,13.10
2011,07,14,00,53,13.10
2011,07,14,00,54,13.10
2011,07,14,00,55,13.10
2011,07,14,00,56,13.10
2011,07,14,00,57,13.10
2011,07,14,00,58,13.00
2011,07,14,00,59,13.00
2011,07,14,01,00,13.00
2011,07,14,01,01,13.00
2011,07,14,01,02,13.10
2011,07,14,01,03,13.10
2011,07,14,01,04,13.20
2011,07,14,01,05,13.20
2011,07,14,01,06,13.20
2011,07,14,01,07,13.20
2011,07,14,01,08,13.20
2011,07,14,01,09,13.20
2011,07,14,01,10,13.20
2011,07,14,01,11,13.10
2011,07,14,01,12,13.10
2011,07,14,01,13,13.10
2011,07,14,01,14,13.10
2011,07,14,01,15,13.10
2011,07,14,01,16,13.10
2011,07,14,01,17,13.10
2011,07,14,01,18,13.10
2011,07,14,01,19,13.10
2011,07,14,01,20,13.10
2011,07,14,01,21,13.10
2011,07,14,01,22,13.10
2011,07,14,01,23,13.10
2011,07,14,01,24,13.00
2011,07,14,01,25,13.00
2011,07,14,01,26,13.00
2011,07,14,01,27,13.00
2011,07,14,01,28,13.00
2011,07,14,01,29,13.00
2011,07,14,01,30,13.00
2011,07,14,01,31,13.00
2011,07,14,01,32,13.00
2011,07,14,01,33,13.00
2011,07,14,01,34,13.00
2011,07,14,01,35,13.00
2011,07,14,01,36,13.00
2011,07,14,01,37,13.00
2011,07,14,01,38,13.00
2011,07,14,01,39,13.00
2011,07,14,01,40,13.00
2011,07,14,01,41,13.00
2011,07,14,01,42,13.00
2011,07,14,01,43,13.00
2011,07,14,01,44,13.00
2011,07,14,01,45,13.00
2011,07,14,01,46,13.00
2011,07,14,01,47,13.00
2011,07,14,01,48,13.00
2011,07,14,01,49,13.00
2011,07,14,01,50,13.00
2011,07,14,01,51,13.00
2011,07,14,01,52,13.00
2011,07,14,01,53,13.00
2011,07,14,01,54,13.00
2011,07,14,01,55,13.00
2011,07,14,01,56,13.00
2011,07,14,01,57,13.00
2011,07,14,01,58,13.00
2011,07,14,01,59,13.00
2011,07,14,02,00,13.00
2011,07,14,02,01,13.00
2011,07,14,02,02,13.00
2011,07,14,02,03,13.00
2011,07,14,02,04,13.00
2011,07,14,02,05,13.00
2011,07,14,02,06,13.00
2011,07,14,02,07,13.00
2011,07,14,02,08,13.00
2011,07,14,02,09,13.00
2011,07,14,02,10,13.00
2011,07,14,02,11,13.00
2011,07,14,02,12,13.00
2011,07,14,02,13,13.00
2011,07,14,02,14,13.00
2011,07,14,02,15,13.00
2011,07,14,02,16,13.00
2011,07,14,02,17,13.00
2011,07,14,02,18,13.00
2011,07,14,02,19,13.00
2011,07,14,02,20,13.00
2011,07,14,02,21,13.00
2011,07,14,02,22,13.00
2011,07,14,02,23,13.00
2011,07,14,02,24,13.00
2011,07,14,02,25,13.00
2011,07,14,02,26,13.00
2011,07,14,02,27,13.00
2011,07,14,02,28,13.00
2011,07,14,02,29,13.00
2011,07,14,02,30,13.00
2011,07,14,02,31,13.00
2011,07,14,02,32,13.00
2011,07,14,02,33,13.00
2011,07,14,02,34,13.00
2011,07,14,02,35,13.00
2011,07,14,02,36,13.00
2011,07,14,02,37,13.00
2011,07,14,02,38,13.00
2011,07,14,02,39,13.00
2011,07,14,02,40,13.00
2011,07,14,02,41,13.00
2011,07,14,02,42,13.10
2011,07,14,02,43,13.00
2011,07,14,02,44,13.00
2011,07,14,02,45,13.00
2011,07,14,02,46,13.00
2011,07,14,02,47,13.00
2011,07,14,02,48,13.00
2011,07,14,02,49,13.00
2011,07,14,02,50,13.00
2011,07,14,02,51,13.00
2011,07,14,02,52,13.00
2011,07,14,02,53,13.00
2011,07,14,02,54,13.00
2011,07,14,02,55,13.00
2011,07,14,02,56,13.00
2011,07,14,02,57,13.00
2011,07,14,02,58,13.00
2011,07,14,02,59,13.00
2011,07,14,03,00,13.00
2011,07,14,03,01,13.00
2011,07,14,03,02,13.00
2011,07,14,03,03,13.00
2011,07,14,03,04,13.10
2011,07,14,03,05,13.00
2011,07,14,03,06,13.00
2011,07,14,03,07,13.00
2011,07,14,03,08,13.00
2011,07,14,03,09,13.00
2011,07,14,03,10,13.00
2011,07,14,03,11,13.00
2011,07,14,03,12,13.00
2011,07,14,03,13,13.00
2011,07,14,03,14,13.00
2011,07,14,03,15,13.00
2011,07,14,03,16,12.90
2011,07,14,03,17,12.90
2011,07,14,03,18,12.90
2011,07,14,03,19,12.90
2011,07,14,03,20,12.90
2011,07,14,03,21,12.90
2011,07,14,03,22,12.90
2011,07,14,03,23,12.90
2011,07,14,03,24,12.90
2011,07,14,03,25,12.90
2011,07,14,03,26,12.90
2011,07,14,03,27,12.90
2011,07,14,03,28,12.90
2011,07,14,03,29,13.00
2011,07,14,03,30,13.00
2011,07,14,03,31,13.00
2011,07,14,03,32,13.00
2011,07,14,03,33,13.10
2011,07,14,03,34,13.10
2011,07,14,03,35,13.10
2011,07,14,03,36,13.10
2011,07,14,03,37,13.10
2011,07,14,03,38,13.10
2011,07,14,03,39,13.10
2011,07,14,03,40,13.10
2011,07,14,03,41,13.10
2011,07,14,03,42,13.10
2011,07,14,03,43,13.10
2011,07,14,03,44,13.10
2011,07,14,03,45,13.10
2011,07,14,03,46,13.10
2011,07,14,03,47,13.10
2011,07,14,03,48,13.20
2011,07,14,03,49,13.20
2011,07,14,03,50,13.20
2011,07,14,03,51,13.20
2011,07,14,03,52,13.20
2011,07,14,03,53,13.20
2011,07,14,03,54,13.20
2011,07,14,03,55,13.20
2011,07,14,03,56,13.20
2011,07,14,03,57,13.30
2011,07,14,03,58,13.30
2011,07,14,03,59,13.30
2011,07,14,04,00,13.40
2011,07,14,04,01,13.40
2011,07,14,04,02,13.40
2011,07,14,04,03,13.40
2011,07,14,04,04,13.50
2011,07,14,04,05,13.50
2011,07,14,04,06,13.50
2011,07,14,04,07,13.50
2011,07,14,04,08,13.40
2011,07,14,04,09,13.40
2011,07,14,04,10,13.40
2011,07,14,04,11,13.40
2011,07,14,04,12,13.40
2011,07,14,04,13,13.40
2011,07,14,04,14,13.40
2011,07,14,04,15,13.40
2011,07,14,04,16,13.40
2011,07,14,04,17,13.40
2011,07,14,04,18,13.40
2011,07,14,04,19,13.30
2011,07,14,04,20,13.30
2011,07,14,04,21,13.30
2011,07,14,04,22,13.30
2011,07,14,04,23,13.30
2011,07,14,04,24,13.30
2011,07,14,04,25,13.40
2011,07,14,04,26,13.40
2011,07,14,04,27,13.30
2011,07,14,04,28,13.30
2011,07,14,04,29,13.30
2011,07,14,04,30,13.30
2011,07,14,04,31,13.30
2011,07,14,04,32,13.30
2011,07,14,04,33,13.30
2011,07,14,04,34,13.30
2011,07,14,04,35,13.30
2011,07,14,04,36,13.30
2011,07,14,04,37,13.30
2011,07,14,04,38,13.30
2011,07,14,04,39,13.30
2011,07,14,04,40,13.30
2011,07,14,04,41,13.40
2011,07,14,04,42,13.40
2011,07,14,04,43,13.40
2011,07,14,04,44,13.40
2011,07,14,04,45,13.40
2011,07,14,04,46,13.40
2011,07,14,04,47,13.40
2011,07,14,04,48,13.40
2011,07,14,04,49,13.40
2011,07,14,04,50,13.40
2011,07,14,04,51,13.40
2011,07,14,04,52,13.40
2011,07,14,04,53,13.40
2011,07,14,04,54,13.40
2011,07,14,04,55,13.40
2011,07,14,04,56,13.40
2011,07,14,04,57,13.40
2011,07,14,04,58,13.40
2011,07,14,04,59,13.40
2011,07,14,05,00,13.40
2011,07,14,05,01,13.40
2011,07,14,05,02,13.30
2011,07,14,05,03,13.30
2011,07,14,05,04,13.30
2011,07,14,05,05,13.30
2011,07,14,05,06,13.30
2011,07,14,05,07,13.30
2011,07,14,05,08,13.20
2011,07,14,05,09,13.20
2011,07,14,05,10,13.20
2011,07,14,05,11,13.20
2011,07,14,05,12,13.20
2011,07,14,05,13,13.20
2011,07,14,05,14,13.20
2011,07,14,05,15,13.20
2011,07,14,05,16,13.20
2011,07,14,05,17,13.20
2011,07,14,05,18,13.20
2011,07,14,05,19,13.10
2011,07,14,05,20,13.10
2011,07,14,05,21,13.10
2011,07,14,05,22,13.10
2011,07,14,05,23,13.10
2011,07,14,05,24,13.10
2011,07,14,05,25,13.10
2011,07,14,05,26,13.10
2011,07,14,05,27,13.10
2011,07,14,05,28,13.10
2011,07,14,05,29,13.10
2011,07,14,05,30,13.10
2011,07,14,05,31,13.10
2011,07,14,05,32,13.00
2011,07,14,05,33,13.10
2011,07,14,05,34,13.10
2011,07,14,05,35,13.10
2011,07,14,05,36,13.10
2011,07,14,05,37,13.10
2011,07,14,05,38,13.00
2011,07,14,05,39,13.00
2011,07,14,05,40,13.00
2011,07,14,05,41,13.10
2011,07,14,05,42,13.10
2011,07,14,05,43,13.00
2011,07,14,05,44,13.10
2011,07,14,05,45,13.10
2011,07,14,05,46,13.00
2011,07,14,05,47,13.10
2011,07,14,05,48,13.10
2011,07,14,05,49,13.10
2011,07,14,05,50,13.10
2011,07,14,05,51,13.10
2011,07,14,05,52,13.10
2011,07,14,05,53,13.10
2011,07,14,05,54,13.10
2011,07,14,05,55,13.10
2011,07,14,05,56,13.10
2011,07,14,05,57,13.10
2011,07,14,05,58,13.10
2011,07,14,05,59,13.10
2011,07,14,06,00,13.10
2011,07,14,06,01,13.10
2011,07,14,06,02,13.10
2011,07,14,06,03,13.10
2011,07,14,06,04,13.00
2011,07,14,06,05,13.00
2011,07,14,06,06,13.00
2011,07,14,06,07,13.00
2011,07,14,06,08,13.00
2011,07,14,06,09,13.00
2011,07,14,06,10,13.00
2011,07,14,06,11,13.00
2011,07,14,06,12,13.00
2011,07,14,06,13,13.00
2011,07,14,06,14,13.00
2011,07,14,06,15,12.90
2011,07,14,06,16,12.90
2011,07,14,06,17,12.90
2011,07,14,06,18,12.90
2011,07,14,06,19,12.90
2011,07,14,06,20,12.90
2011,07,14,06,21,12.90
2011,07,14,06,22,12.90
2011,07,14,06,23,12.90
2011,07,14,06,24,12.90
2011,07,14,06,25,12.90
2011,07,14,06,26,12.90
2011,07,14,06,27,12.90
2011,07,14,06,28,12.90
2011,07,14,06,29,12.90
2011,07,14,06,30,12.90
2011,07,14,06,31,12.90
2011,07,14,06,32,12.90
2011,07,14,06,33,13.00
2011,07,14,06,34,13.00
2011,07,14,06,35,13.00
2011,07,14,06,36,13.00
2011,07,14,06,37,13.00
2011,07,14,06,38,13.00
2011,07,14,06,39,13.00
2011,07,14,06,40,13.00
2011,07,14,06,41,13.10
2011,07,14,06,42,13.10
2011,07,14,06,43,13.10
2011,07,14,06,44,13.10
2011,07,14,06,45,13.10
2011,07,14,06,46,13.20
2011,07,14,06,47,13.20
2011,07,14,06,48,13.20
2011,07,14,06,49,13.20
2011,07,14,06,50,13.20
2011,07,14,06,51,13.20
2011,07,14,06,52,13.20
2011,07,14,06,53,13.20
2011,07,14,06,54,13.20
2011,07,14,06,55,13.30
2011,07,14,06,56,13.30
2011,07,14,06,57,13.30
2011,07,14,06,58,13.30
2011,07,14,06,59,13.30
2011,07,14,07,00,13.30
2011,07,14,07,01,13.30
2011,07,14,07,02,13.30
2011,07,14,07,03,13.30
2011,07,14,07,04,13.30
2011,07,14,07,05,13.30
2011,07,14,07,06,13.30
2011,07,14,07,07,13.40
2011,07,14,07,08,13.40
2011,07,14,07,09,13.40
2011,07,14,07,10,13.50
2011,07,14,07,11,13.50
2011,07,14,07,12,13.60
2011,07,14,07,13,13.50
2011,07,14,07,14,13.60
2011,07,14,07,15,13.60
2011,07,14,07,16,13.70
2011,07,14,07,17,13.70
2011,07,14,07,18,13.80
2011,07,14,07,19,13.80
2011,07,14,07,20,13.90
2011,07,14,07,21,14.00
2011,07,14,07,22,14.00
2011,07,14,07,23,14.10
2011,07,14,07,24,14.10
2011,07,14,07,25,14.20
2011,07,14,07,26,14.30
2011,07,14,07,27,14.30
2011,07,14,07,28,14.40
2011,07,14,07,29,14.40
2011,07,14,07,30,14.40
2011,07,14,07,31,14.40
2011,07,14,07,32,14.40
2011,07,14,07,33,14.40
2011,07,14,07,34,14.40
2011,07,14,07,35,14.40
2011,07,14,07,36,14.40
2011,07,14,07,37,14.40
2011,07,14,07,38,14.40
2011,07,14,07,39,14.40
2011,07,14,07,40,14.40
2011,07,14,07,41,14.40
2011,07,14,07,42,14.30
2011,07,14,07,43,14.30
2011,07,14,07,44,14.20
2011,07,14,07,45,14.20
2011,07,14,07,46,14.20
2011,07,14,07,47,14.20
2011,07,14,07,48,14.10
2011,07,14,07,49,14.10
2011,07,14,07,50,14.10
2011,07,14,07,51,14.10
2011,07,14,07,52,14.00
2011,07,14,07,53,14.00
2011,07,14,07,54,14.00
2011,07,14,07,55,14.00
2011,07,14,07,56,14.10
2011,07,14,07,57,14.00
2011,07,14,07,58,14.00
2011,07,14,07,59,14.00
2011,07,14,08,00,14.00
2011,07,14,08,01,14.00
2011,07,14,08,02,14.00
2011,07,14,08,03,14.00
2011,07,14,08,04,14.00
2011,07,14,08,05,14.00
2011,07,14,08,06,13.90
2011,07,14,08,07,13.90
2011,07,14,08,08,13.90
2011,07,14,08,09,14.00
2011,07,14,08,10,14.00
2011,07,14,08,11,14.00
2011,07,14,08,12,14.00
2011,07,14,08,13,14.00
2011,07,14,08,14,14.00
2011,07,14,08,15,14.00
2011,07,14,08,16,14.00
2011,07,14,08,17,14.00
2011,07,14,08,18,14.00
2011,07,14,08,19,14.10
2011,07,14,08,20,14.10
2011,07,14,08,21,14.10
2011,07,14,08,22,14.10
2011,07,14,08,23,14.10
2011,07,14,08,24,14.10
2011,07,14,08,25,14.00
2011,07,14,08,26,14.00
2011,07,14,08,27,14.10
2011,07,14,08,28,14.00
2011,07,14,08,29,14.00
2011,07,14,08,30,14.10
2011,07,14,08,31,14.10
2011,07,14,08,32,14.10
2011,07,14,08,33,14.10
2011,07,14,08,34,14.10
2011,07,14,08,35,14.10
2011,07,14,08,36,14.20
2011,07,14,08,37,14.20
2011,07,14,08,38,14.20
2011,07,14,08,39,14.20
2011,07,14,08,40,14.20
2011,07,14,08,41,14.20
2011,07,14,08,42,14.20
2011,07,14,08,43,14.30
2011,07,14,08,44,14.30
2011,07,14,08,45,14.30
2011,07,14,08,46,14.30
2011,07,14,08,47,14.30
2011,07,14,08,48,14.30
2011,07,14,08,49,14.30
2011,07,14,08,50,14.30
2011,07,14,08,51,14.30
2011,07,14,08,52,14.30
2011,07,14,08,53,14.30
2011,07,14,08,54,14.30
2011,07,14,08,55,14.30
2011,07,14,08,56,14.30
2011,07,14,08,57,14.30
2011,07,14,08,58,14.30
2011,07,14,08,59,14.30
2011,07,14,09,00,14.30
2011,07,14,09,01,14.30
2011,07,14,09,02,14.30
2011,07,14,09,03,14.30
2011,07,14,09,04,14.30
2011,07,14,09,05,14.30
2011,07,14,09,06,14.30
2011,07,14,09,07,14.30
2011,07,14,09,08,14.30
2011,07,14,09,09,14.30
2011,07,14,09,10,14.30
2011,07,14,09,11,14.30
2011,07,14,09,12,14.30
2011,07,14,09,13,14.30
2011,07,14,09,14,14.30
2011,07,14,09,15,14.30
2011,07,14,09,16,14.30
2011,07,14,09,17,14.30
2011,07,14,09,18,14.30
2011,07,14,09,19,14.30
2011,07,14,09,20,14.30
2011,07,14,09,21,14.30
2011,07,14,09,22,14.30
2011,07,14,09,23,14.30
2011,07,14,09,24,14.30
2011,07,14,09,25,14.30
2011,07,14,09,26,14.30
2011,07,14,09,27,14.30
2011,07,14,09,28,14.30
2011,07,14,09,29,14.30
2011,07,14,09,30,14.30
2011,07,14,09,31,14.30
2011,07,14,09,32,14.30
2011,07,14,09,33,14.30
2011,07,14,09,34,14.30
2011,07,14,09,35,14.30
2011,07,14,09,36,14.30
2011,07,14,09,37,14.40
2011,07,14,09,38,14.40
2011,07,14,09,39,14.40
2011,07,14,09,40,14.40
2011,07,14,09,41,14.40
2011,07,14,09,42,14.40
2011,07,14,09,43,14.40
2011,07,14,09,44,14.40
2011,07,14,09,45,14.40
2011,07,14,09,46,14.40
2011,07,14,09,47,14.40
2011,07,14,09,48,14.50
2011,07,14,09,49,14.50
2011,07,14,09,50,14.50
2011,07,14,09,51,14.50
2011,07,14,09,52,14.50
2011,07,14,09,53,14.60
2011,07,14,09,54,14.60
2011,07,14,09,55,14.60
2011,07,14,09,56,14.60
2011,07,14,09,57,14.60
2011,07,14,09,58,14.60
2011,07,14,09,59,14.60
2011,07,14,10,00,14.60
2011,07,14,10,01,14.60
2011,07,14,10,02,14.60
2011,07,14,10,03,14.70
2011,07,14,10,04,14.70
2011,07,14,10,05,14.70
2011,07,14,10,06,14.70
2011,07,14,10,07,14.70
2011,07,14,10,08,14.70
2011,07,14,10,09,14.70
2011,07,14,10,10,14.70
2011,07,14,10,11,14.70
2011,07,14,10,12,14.70
2011,07,14,10,13,14.70
2011,07,14,10,14,14.70
2011,07,14,10,15,14.70
2011,07,14,10,16,14.70
2011,07,14,10,17,14.70
2011,07,14,10,18,14.70
2011,07,14,10,19,14.70
2011,07,14,10,20,14.70
2011,07,14,10,21,14.70
2011,07,14,10,22,14.80
2011,07,14,10,23,14.80
2011,07,14,10,24,14.80
2011,07,14,10,25,14.80
2011,07,14,10,26,14.80
2011,07,14,10,27,14.80
2011,07,14,10,28,14.80
2011,07,14,10,29,14.80
2011,07,14,10,30,14.80
2011,07,14,10,31,14.90
2011,07,14,10,32,14.90
2011,07,14,10,33,14.90
2011,07,14,10,34,15.00
2011,07,14,10,35,15.00
2011,07,14,10,36,15.00
2011,07,14,10,37,15.10
2011,07,14,10,38,15.10
2011,07,14,10,39,15.20
2011,07,14,10,40,15.20
2011,07,14,10,41,15.20
2011,07,14,10,42,15.30
2011,07,14,10,43,15.30
2011,07,14,10,44,15.30
2011,07,14,10,45,15.40
2011,07,14,10,46,15.40
2011,07,14,10,47,15.40
2011,07,14,10,48,15.50
2011,07,14,10,49,15.50
2011,07,14,10,50,15.50
2011,07,14,10,51,15.60
2011,07,14,10,52,15.60
2011,07,14,10,53,15.60
2011,07,14,10,54,15.60
2011,07,14,10,55,15.60
2011,07,14,10,56,15.70
2011,07,14,10,57,15.70
2011,07,14,10,58,15.70
2011,07,14,10,59,15.70
2011,07,14,11,00,15.80
2011,07,14,11,01,15.80
2011,07,14,11,02,15.80
2011,07,14,11,03,15.80
2011,07,14,11,04,15.80
2011,07,14,11,05,15.90
2011,07,14,11,06,15.90
2011,07,14,11,07,16.00
2011,07,14,11,08,16.00
2011,07,14,11,09,16.00
2011,07,14,11,10,15.90
2011,07,14,11,11,16.00
2011,07,14,11,12,16.00
2011,07,14,11,13,16.00
2011,07,14,11,14,16.00
2011,07,14,11,15,16.10
2011,07,14,11,16,16.10
2011,07,14,11,17,16.00
2011,07,14,11,18,16.00
2011,07,14,11,19,15.90
2011,07,14,11,20,15.90
2011,07,14,11,21,15.90
2011,07,14,11,22,15.90
2011,07,14,11,23,15.90
2011,07,14,11,24,15.90
2011,07,14,11,25,16.00
2011,07,14,11,26,16.00
2011,07,14,11,27,16.00
2011,07,14,11,28,16.10
2011,07,14,11,29,16.10
2011,07,14,11,30,16.00
2011,07,14,11,31,16.10
2011,07,14,11,32,16.00
2011,07,14,11,33,16.00
2011,07,14,11,34,16.00
2011,07,14,11,35,15.90
2011,07,14,11,36,15.90
2011,07,14,11,37,15.90
2011,07,14,11,38,16.00
2011,07,14,11,39,16.00
2011,07,14,11,40,16.00
2011,07,14,11,41,16.10
2011,07,14,11,42,16.10
2011,07,14,11,43,16.10
2011,07,14,11,44,16.10
2011,07,14,11,45,16.10
2011,07,14,11,46,16.10
2011,07,14,11,47,16.10
2011,07,14,11,48,16.00
2011,07,14,11,49,16.00
2011,07,14,11,50,16.10
2011,07,14,11,51,16.10
2011,07,14,11,52,16.10
2011,07,14,11,53,16.10
2011,07,14,11,54,16.20
2011,07,14,11,55,16.30
2011,07,14,11,56,16.30
2011,07,14,11,57,16.30
2011,07,14,11,58,16.40
2011,07,14,11,59,16.40
2011,07,14,12,00,16.30
2011,07,14,12,01,16.30
2011,07,14,12,02,16.20
2011,07,14,12,03,16.20
2011,07,14,12,04,16.20
2011,07,14,12,05,16.30
2011,07,14,12,06,16.30
2011,07,14,12,07,16.30
2011,07,14,12,08,16.40
2011,07,14,12,09,16.40
2011,07,14,12,10,16.40
2011,07,14,12,11,16.40
2011,07,14,12,12,16.30
2011,07,14,12,13,16.30
2011,07,14,12,14,16.30
2011,07,14,12,15,16.30
2011,07,14,12,16,16.20
2011,07,14,12,17,16.20
2011,07,14,12,18,16.20
2011,07,14,12,19,16.10
2011,07,14,12,20,16.10
2011,07,14,12,21,16.10
2011,07,14,12,22,16.10
2011,07,14,12,23,16.20
2011,07,14,12,24,16.30
2011,07,14,12,25,16.40
2011,07,14,12,26,16.50
2011,07,14,12,27,16.50
2011,07,14,12,28,16.60
2011,07,14,12,29,16.60
2011,07,14,12,30,16.60
2011,07,14,12,31,16.50
2011,07,14,12,32,16.50
2011,07,14,12,33,16.40
2011,07,14,12,34,16.50
2011,07,14,12,35,16.60
2011,07,14,12,36,16.60
2011,07,14,12,37,16.60
2011,07,14,12,38,16.50
2011,07,14,12,39,16.40
2011,07,14,12,40,16.40
2011,07,14,12,41,16.30
2011,07,14,12,42,16.30
2011,07,14,12,43,16.20
2011,07,14,12,44,16.20
2011,07,14,12,45,16.20
2011,07,14,12,46,16.10
2011,07,14,12,47,16.10
2011,07,14,12,48,16.00
2011,07,14,12,49,16.00
2011,07,14,12,50,16.00
2011,07,14,12,51,16.00
2011,07,14,12,52,16.00
2011,07,14,12,53,16.00
2011,07,14,12,54,16.00
2011,07,14,12,55,16.00
2011,07,14,12,56,16.00
2011,07,14,12,57,16.00
2011,07,14,12,58,16.10
2011,07,14,12,59,16.10
2011,07,14,13,00,16.10
2011,07,14,13,01,16.20
2011,07,14,13,02,16.20
2011,07,14,13,03,16.20
2011,07,14,13,04,16.20
2011,07,14,13,05,16.20
2011,07,14,13,06,16.20
2011,07,14,13,07,16.20
2011,07,14,13,08,16.10
2011,07,14,13,09,16.10
2011,07,14,13,10,16.20
2011,07,14,13,11,16.10
2011,07,14,13,12,16.10
2011,07,14,13,13,16.10
2011,07,14,13,14,16.20
2011,07,14,13,15,16.20
2011,07,14,13,16,16.20
2011,07,14,13,17,16.20
2011,07,14,13,18,16.20
2011,07,14,13,19,16.20
2011,07,14,13,20,16.20
2011,07,14,13,21,16.20
2011,07,14,13,22,16.20
2011,07,14,13,23,16.20
2011,07,14,13,24,16.20
2011,07,14,13,25,16.20
2011,07,14,13,26,16.20
2011,07,14,13,27,16.20
2011,07,14,13,28,16.20
2011,07,14,13,29,16.20
2011,07,14,13,30,16.30
2011,07,14,13,31,16.30
2011,07,14,13,32,16.30
2011,07,14,13,33,16.30
2011,07,14,13,34,16.20
2011,07,14,13,35,16.20
2011,07,14,13,36,16.20
2011,07,14,13,37,16.20
2011,07,14,13,38,16.10
2011,07,14,13,39,16.10
2011,07,14,13,40,16.10
2011,07,14,13,41,16.20
2011,07,14,13,42,16.20
2011,07,14,13,43,16.20
2011,07,14,13,44,16.20
2011,07,14,13,45,16.20
2011,07,14,13,46,16.20
2011,07,14,13,47,16.20
2011,07,14,13,48,16.20
2011,07,14,13,49,16.20
2011,07,14,13,50,16.20
2011,07,14,13,51,16.30
2011,07,14,13,52,16.30
2011,07,14,13,53,16.30
2011,07,14,13,54,16.20
2011,07,14,13,55,16.20
2011,07,14,13,56,16.20
2011,07,14,13,57,16.20
2011,07,14,13,58,16.20
2011,07,14,13,59,16.20
2011,07,14,14,00,16.20
2011,07,14,14,01,16.20
2011,07,14,14,02,16.20
2011,07,14,14,03,16.20
2011,07,14,14,04,16.20
2011,07,14,14,05,16.20
2011,07,14,14,06,16.20
2011,07,14,14,07,16.20
2011,07,14,14,08,16.20
2011,07,14,14,09,16.10
2011,07,14,14,10,16.20
2011,07,14,14,11,16.20
2011,07,14,14,12,16.20
2011,07,14,14,13,16.20
2011,07,14,14,14,16.20
2011,07,14,14,15,16.30
2011,07,14,14,16,16.30
2011,07,14,14,17,16.30
2011,07,14,14,18,16.30
2011,07,14,14,19,16.30
2011,07,14,14,20,16.20
2011,07,14,14,21,16.20
2011,07,14,14,22,16.20
2011,07,14,14,23,16.20
2011,07,14,14,24,16.20
2011,07,14,14,25,16.30
2011,07,14,14,26,16.30
2011,07,14,14,27,16.40
2011,07,14,14,28,16.40
2011,07,14,14,29,16.50
2011,07,14,14,30,16.50
2011,07,14,14,31,16.60
2011,07,14,14,32,16.60
2011,07,14,14,33,16.70
2011,07,14,14,34,16.70
2011,07,14,14,35,16.70
2011,07,14,14,36,16.70
2011,07,14,14,37,16.70
2011,07,14,14,38,16.80
2011,07,14,14,39,16.90
2011,07,14,14,40,16.90
2011,07,14,14,41,17.00
2011,07,14,14,42,17.00
2011,07,14,14,43,17.00
2011,07,14,14,44,17.00
2011,07,14,14,45,16.90
2011,07,14,14,46,16.90
2011,07,14,14,47,16.80
2011,07,14,14,48,16.80
2011,07,14,14,49,16.80
2011,07,14,14,50,16.80
2011,07,14,14,51,16.80
2011,07,14,14,52,16.80
2011,07,14,14,53,16.80
2011,07,14,14,54,16.80
2011,07,14,14,55,16.70
2011,07,14,14,56,16.60
2011,07,14,14,57,16.60
2011,07,14,14,58,16.60
2011,07,14,14,59,16.70
2011,07,14,15,00,16.70
2011,07,14,15,01,16.70
2011,07,14,15,02,16.70
2011,07,14,15,03,16.80
2011,07,14,15,04,16.90
2011,07,14,15,05,17.00
2011,07,14,15,06,17.00
2011,07,14,15,07,17.00
2011,07,14,15,08,17.00
2011,07,14,15,09,17.00
2011,07,14,15,10,16.90
2011,07,14,15,11,16.90
2011,07,14,15,12,16.90
2011,07,14,15,13,16.90
2011,07,14,15,14,16.90
2011,07,14,15,15,16.90
2011,07,14,15,16,16.80
2011,07,14,15,17,16.80
2011,07,14,15,18,16.70
2011,07,14,15,19,16.70
2011,07,14,15,20,16.60
2011,07,14,15,21,16.60
2011,07,14,15,22,16.60
2011,07,14,15,23,16.60
2011,07,14,15,24,16.70
2011,07,14,15,25,16.60
2011,07,14,15,26,16.60
2011,07,14,15,27,16.60
2011,07,14,15,28,16.60
2011,07,14,15,29,16.50
2011,07,14,15,30,16.40
2011,07,14,15,31,16.30
2011,07,14,15,32,16.30
2011,07,14,15,33,16.30
2011,07,14,15,34,16.30
2011,07,14,15,35,16.30
2011,07,14,15,36,16.30
2011,07,14,15,37,16.20
2011,07,14,15,38,16.20
2011,07,14,15,39,16.20
2011,07,14,15,40,16.20
2011,07,14,15,41,16.10
2011,07,14,15,42,16.10
2011,07,14,15,43,16.10
2011,07,14,15,44,16.20
2011,07,14,15,45,16.20
2011,07,14,15,46,16.20
2011,07,14,15,47,16.20
2011,07,14,15,48,16.20
2011,07,14,15,49,16.20
2011,07,14,15,50,16.30
2011,07,14,15,51,16.30
2011,07,14,15,52,16.30
2011,07,14,15,53,16.30
2011,07,14,15,54,16.30
2011,07,14,15,55,16.30
2011,07,14,15,56,16.30
2011,07,14,15,57,16.30
2011,07,14,15,58,16.30
2011,07,14,15,59,16.30
2011,07,14,16,00,16.40
2011,07,14,16,01,16.40
2011,07,14,16,02,16.40
2011,07,14,16,03,16.30
2011,07,14,16,04,16.30
2011,07,14,16,05,16.30
2011,07,14,16,06,16.30
2011,07,14,16,07,16.30
2011,07,14,16,08,16.30
2011,07,14,16,09,16.30
2011,07,14,16,10,16.40
2011,07,14,16,11,16.40
2011,07,14,16,12,16.40
2011,07,14,16,13,16.40
2011,07,14,16,14,16.40
2011,07,14,16,15,16.40
2011,07,14,16,16,16.50
2011,07,14,16,17,16.40
2011,07,14,16,18,16.40
2011,07,14,16,19,16.30
2011,07,14,16,20,16.30
2011,07,14,16,21,16.20
2011,07,14,16,22,16.20
2011,07,14,16,23,16.20
2011,07,14,16,24,16.20
2011,07,14,16,25,16.20
2011,07,14,16,26,16.10
2011,07,14,16,27,16.10
2011,07,14,16,28,16.10
2011,07,14,16,29,16.00
2011,07,14,16,30,16.00
2011,07,14,16,31,16.00
2011,07,14,16,32,16.00
2011,07,14,16,33,16.00
2011,07,14,16,34,16.00
2011,07,14,16,35,16.00
2011,07,14,16,36,16.00
2011,07,14,16,37,16.00
2011,07,14,16,38,15.90
2011,07,14,16,39,15.90
2011,07,14,16,40,15.90
2011,07,14,16,41,15.90
2011,07,14,16,42,15.90
2011,07,14,16,43,15.90
2011,07,14,16,44,15.90
2011,07,14,16,45,15.90
2011,07,14,16,46,15.90
2011,07,14,16,47,15.90
2011,07,14,16,48,15.90
2011,07,14,16,49,15.80
2011,07,14,16,50,15.80
2011,07,14,16,51,15.80
2011,07,14,16,52,15.80
2011,07,14,16,53,15.80
2011,07,14,16,54,15.80
2011,07,14,16,55,15.80
2011,07,14,16,56,15.80
2011,07,14,16,57,15.80
2011,07,14,16,58,15.80
2011,07,14,16,59,15.80
2011,07,14,17,00,15.80
2011,07,14,17,01,15.80
2011,07,14,17,02,15.80
2011,07,14,17,03,15.80
2011,07,14,17,04,15.80
2011,07,14,17,05,15.90
2011,07,14,17,06,15.90
2011,07,14,17,07,15.90
2011,07,14,17,08,16.00
2011,07,14,17,09,16.00
2011,07,14,17,10,16.10
2011,07,14,17,11,16.10
2011,07,14,17,12,16.10
2011,07,14,17,13,16.10
2011,07,14,17,14,16.20
2011,07,14,17,15,16.20
2011,07,14,17,16,16.20
2011,07,14,17,17,16.20
2011,07,14,17,18,16.20
2011,07,14,17,19,16.30
2011,07,14,17,20,16.30
2011,07,14,17,21,16.30
2011,07,14,17,22,16.30